Zurück zum Katalog

STARLINK-3300

AktivKommunikationVLEO
NORAD 50841·PAYLOAD·🇺🇸 United States

Gestartet Jan 6, 2022 von Cape Canaveral Space Force Station

Loading…

Nächste Überflüge (nächste 24 Stunden)

TLE

AktuellSource: CelesTrak SupGP

Epoche: Sep 15, 2026, 01:33 UTC

1 50841C 22001AQ  26258.06506944 -.00034361  00000+0 -10428-2 0  2583
2 50841  53.1587  35.2005 0001189  85.2742 154.0225 15.33561222    11

Verfolge STARLINK-3300 in Echtzeit mit AllMySat

Download on the App Store